Location: Cedar Brake
(32.2526°N, 97.8459°W)
Time: 07:52:52
(UTC+00:00)

Sich 1 - Pass Details

Date: 22 April 2026
Orbit: 570 x 598 km, 82.5° (Epoch: 15 May)

Event Time Altitude Azimuth Distance (km) Brightness Sun altitude
Rises 10:26:21 0° 353° (N) 2,779 6.7 -18.1°
Reaches altitude 10° 10:28:33 10° 353° (N) 1,876 5.8 -17.7°
Maximum altitude 10:32:41 86° 266° (W) 575 2.8 -16.9°
Drops below altitude 10° 10:36:47 10° 176° (S) 1,862 5.3 -16.1°
Sets 10:38:57 0° 176° (S) 2,756 6.2 -15.7°
